This is the latest recevied weather packets stored in our database for station/object AH6GR. If no packets are shown the sender has not sent any weather packets the latest 10 day(s).
| Time | Temp. | Humidity | Pressure | Rain* | Wind** | Luminosity | Snow |
|---|---|---|---|---|---|---|---|
| 1777773027 | 23.33° C | 79% | 1014.5 hPa | 0 mm | - | - | - |
| 1777772738 | 22.78° C | 79% | 1013.5 hPa | 0 mm | - | - | - |
| 1777772427 | 22.78° C | 80% | 1014.3 hPa | 0 mm | - | - | - |
| 1777771827 | 22.78° C | 77% | 1014.4 hPa | 0 mm | - | - | - |
| 1777771812 | 22.78° C | 77% | 1013.6 hPa | 0 mm | - | - | - |
| 1777771227 | 22.78° C | 80% | 1014.5 hPa | 0 mm | - | - | - |
| 1777770963 | 22.78° C | 80% | 1013.7 hPa | 0 mm | - | - | - |
| 1777770627 | 22.78° C | 79% | 1014.4 hPa | 0 mm | - | - | - |
| 1777770035 | 22.78° C | 81% | 1013.7 hPa | 0 mm | - | - | - |
| 1777770027 | 22.78° C | 81% | 1014.6 hPa | 0 mm | - | - | - |
| 1777769427 | 22.78° C | 80% | 1014.7 hPa | 0 mm | - | - | - |
| 1777769111 | 22.78° C | 80% | 1014 hPa | 0 mm | - | - | - |
| 1777768827 | 22.78° C | 81% | 1014.8 hPa | 0 mm | - | - | - |
| 1777768268 | 22.22° C | 81% | 1014.1 hPa | 0 mm | - | - | - |
| 1777768227 | 22.22° C | 81% | 1015 hPa | 0 mm | - | - | - |
| 1777767627 | 22.22° C | 82% | 1015.1 hPa | 0 mm | - | - | - |
| 1777767325 | 22.22° C | 82% | 1014.4 hPa | 0 mm | - | - | - |
| 1777767027 | 22.78° C | 82% | 1015.3 hPa | 0 mm | - | - | - |
| 1777766427 | 22.78° C | 80% | 1015.4 hPa | 0 mm | - | - | - |
| 1777766400 | 22.22° C | 80% | 1014.6 hPa | 0 mm | - | - | - |
| 1777765827 | 22.78° C | 80% | 1015.5 hPa | 0 mm | - | - | - |
| 1777765546 | 22.78° C | 79% | 1014.8 hPa | 0 mm | - | - | - |
| 1777765227 | 22.78° C | 80% | 1015.7 hPa | 0 mm | - | - | - |
| 1777764627 | 22.78° C | 80% | 1015.8 hPa | 0 mm | - | - | - |
| 1777764619 | 22.22° C | 80% | 1015 hPa | 0 mm | - | - | - |
* Rain latest hour (hover to see other rain measurements)
** Current wind speed in m/s (hover to see current wind gust speed)